Location: Newark
(30.0333°N, 31.2167°E)
Time: 01:11:27
(UTC+00:00)

Tiros 1 despin weight - Pass Details

Date: 29 January 2020
Orbit: 594 x 642 km, 48.2° (Epoch: 19 February)

Event Time Altitude Azimuth Distance (km) Brightness Sun altitude
Rises 14:13:36 0° 312° (NW) 2,911 ? 13.9°
Reaches altitude 10° 14:15:55 10° 313° (NW) 2,009 ? 13.5°
Maximum altitude 14:20:33 83° 39° (NE) 643 ? 12.6°
Drops below altitude 10° 14:25:13 10° 130° (SE) 2,019 ? 11.7°
Sets 14:27:33 0° 131° (SE) 2,928 ? 11.3°
